Back to catalog

COSMOS 2251 DEB

AliveLEO
NORAD 35022·DEBRIS·🇷🇺 Russia

Launched Jun 16, 1993 from Plesetsk Cosmodrome

Loading…

Next Passes (next 24 hours)

TLE

StaleSource: Space-Track

Epoch: Sep 7, 2026, 11:56 UTC

1 35022U 93036AGK 26250.49769748  .00001080  00000-0  21902-3 0  9998
2 35022  74.0251 167.5861 0047913 296.0334  63.5903 14.61809518630691

Track COSMOS 2251 DEB in real time with AllMySat

Download on the App Store